GFSFLT1_850_temp_159.txt.gz
Temp
23 23 23 24 23 24 23 23 23 22 22 21 21 20 20 19 20 20 19 19 20 20 20 20 20 20 19 19 19 19 19 18 19
23 23 24 24 23 23 23 23 23 23 23 22 22 21 20 20 19 19 19 19 19 19 19 19 20 20 19 19 19 19 19 19 19
23 24 24 24 24 24 23 23 24 24 23 23 23 22 21 20 20 20 20 19 19 19 19 19 19 19 19 19 19 19 19 19 19
24 24 24 25 25 25 25 23 23 24 23 23 22 22 22 21 20 20 20 20 19 19 19 19 19 19 19 19 19 19 19 19 19
24 26 25 25 25 25 25 24 24 24 24 23 23 22 22 22 21 21 20 20 20 20 19 19 19 19 19 19 19 19 19 19 19
25 25 26 25 24 24 24 24 24 24 24 23 23 22 22 22 21 21 21 21 21 20 20 19 19 18 18 18 18 19 19 19 19
22 23 24 24 23 23 24 24 23 24 23 23 23 22 22 22 22 22 21 21 21 20 19 19 18 18 18 18 18 18 18 19 19
21 23 21 22 22 21 21 22 22 22 23 23 23 22 23 23 23 22 21 20 19 19 19 19 19 19 19 19 19 18 19 18 18
21 21 21 22 21 21 21 21 22 23 23 24 24 22 23 23 22 21 20 20 19 20 19 18 18 20 20 20 18 19 19 18 18
21 21 21 22 21 21 22 23 22 24 24 24 23 23 22 21 19 20 20 20 20 19 19 19 18 18 18 18 18 18 19 19 18
20 22 22 22 23 24 23 21 19 21 24 24 23 22 21 21 21 21 20 20 20 19 19 19 18 17 17 16 17 17 18 17 18
22 22 21 22 24 26 27 24 23 19 23 22 21 22 22 21 21 20 19 18 18 18 18 18 18 18 18 17 17 17 18 18 18
22 22 21 23 22 22 22 22 20 21 22 22 22 22 21 20 19 18 18 18 18 18 18 18 19 19 19 19 20 19 19 18 18
22 21 21 21 22 20 20 19 20 22 22 21 20 19 18 17 17 17 18 17 17 18 18 18 18 18 18 18 18 19 19 19 18
21 20 19 19 20 20 20 21 21 21 21 19 18 17 17 16 16 17 17 17 17 17 17 17 16 16 15 14 14 14 15 16 16
22 21 20 20 19 19 21 21 21 21 19 18 17 17 16 16 16 16 17 17 17 17 16 15 14 12 12 11 11 10 11 11 13
21 21 21 20 19 19 19 18 18 18 18 17 16 16 16 16 16 16 16 16 16 15 15 13 13 12 10 10 10 11 12 12 13
21 21 20 19 19 19 19 18 18 17 17 17 16 16 15 15 16 16 15 15 15 14 13 12 12 9 8 8 8 9 11 13 13
21 21 20 19 18 18 18 17 17 16 16 16 16 15 15 15 15 15 14 14 13 12 11 11 11 8 8 8 8 9 11 13 13
21 20 20 21 20 18 17 16 16 16 15 15 15 15 15 15 14 14 14 13 12 11 11 10 10 10 8 8 8 8 9 11 12

GFSFLT1_850_temp_162.txt.gz
Temp
22 23 24 24 23 23 24 24 23 23 22 21 20 20 20 20 19 19 19 19 19 19 20 20 20 19 19 19 19 19 18 18 18
22 23 24 24 23 23 24 24 23 23 23 23 22 21 20 20 20 19 19 19 19 19 19 19 19 19 19 19 19 19 18 18 18
23 23 23 24 23 24 24 24 24 23 23 23 23 22 21 20 20 20 19 19 19 19 19 19 19 19 19 19 19 19 19 19 19
23 23 24 25 24 24 24 24 24 24 24 23 23 22 21 21 21 20 20 19 19 19 19 19 19 19 19 19 19 19 19 19 19
24 25 25 24 25 25 25 24 24 24 24 24 23 23 22 21 21 20 20 20 20 20 19 19 19 19 19 19 19 19 18 19 19
24 24 24 23 24 24 24 25 24 24 23 24 23 21 22 22 21 20 20 21 20 20 20 19 19 19 19 19 19 19 19 18 18
24 24 24 23 23 24 24 24 24 24 23 23 23 23 23 22 22 21 21 21 21 20 20 20 19 20 20 19 19 19 19 19 19
23 23 22 23 23 23 24 23 23 23 22 23 23 23 23 23 22 20 21 21 20 19 19 19 19 20 19 19 19 19 19 18 18
20 21 21 22 22 22 22 22 22 22 23 23 23 23 22 22 21 21 20 20 20 19 19 19 19 19 19 19 19 19 18 18 18
20 21 21 20 21 22 23 22 22 23 23 23 22 22 21 21 21 21 20 20 20 20 20 19 19 19 19 20 19 19 19 18 17
23 22 22 22 22 22 23 22 22 22 21 21 21 21 21 21 21 21 21 20 19 20 20 19 19 19 19 20 20 19 19 18 18
25 24 23 23 22 23 23 22 21 23 22 21 21 21 20 20 21 21 21 20 19 19 19 19 19 19 19 19 19 19 19 19 19
23 23 22 22 22 23 22 20 20 19 20 20 20 21 20 20 21 21 19 19 19 19 19 19 19 19 18 18 18 18 18 18 18
23 23 22 21 23 23 21 20 19 17 19 16 18 18 19 18 19 17 18 18 18 18 18 18 18 19 18 17 16 16 15 15 16
22 22 21 22 22 22 20 19 19 20 19 15 18 17 17 17 17 17 17 17 18 18 18 18 17 17 16 15 14 12 11 11 10
19 22 21 22 21 21 21 21 21 21 20 17 16 16 17 17 16 16 17 17 17 17 16 16 15 14 14 14 13 12 11 10 10
20 20 21 21 19 20 20 20 20 18 19 18 17 17 16 16 16 16 16 16 16 16 15 15 14 13 11 10 10 9 10 10 11
20 20 20 19 19 19 19 18 17 17 17 17 16 16 16 16 16 15 15 15 15 15 15 13 13 12 9 8 8 8 8 10 11
19 19 19 18 18 18 18 17 17 16 16 16 16 15 15 15 15 15 15 15 15 14 13 12 12 11 9 8 8 8 9 9 11
18 19 19 19 19 18 18 18 17 16 16 15 15 15 15 15 15 15 14 14 13 13 12 11 11 11 9 9 9 8 8 9 10

GFSFLT1_850_temp_165.txt.gz
Temp
24 23 23 22 22 23 24 24 24 23 23 22 21 20 20 20 20 19 19 19 19 19 19 19 20 20 19 19 19 19 19 19 18
23 23 23 22 21 24 24 24 24 24 23 23 22 21 21 20 20 19 20 20 19 19 19 19 20 20 19 19 19 19 19 18 18
24 23 22 22 21 23 25 25 25 24 24 24 23 22 21 21 20 20 19 19 19 19 19 19 19 19 19 19 19 19 19 19 19
24 23 22 22 23 23 24 25 24 24 24 24 23 23 23 22 21 20 20 19 19 19 19 19 19 19 19 19 19 19 19 19 19
23 22 22 23 23 23 23 25 25 24 24 24 24 23 23 22 22 21 20 20 20 20 19 19 19 19 19 19 19 19 19 19 19
25 24 21 23 23 24 24 24 24 24 24 24 24 23 23 23 22 22 21 20 20 20 19 20 20 19 19 19 19 19 19 19 19
24 23 21 23 23 23 24 24 24 24 24 23 24 24 23 23 23 22 22 21 20 20 20 19 20 20 19 19 19 19 19 19 19
23 21 21 22 24 24 24 23 23 23 23 23 23 24 23 23 23 22 21 21 21 20 20 19 19 19 19 19 19 19 18 18 18
23 21 21 22 23 24 24 23 23 23 23 22 22 23 22 22 22 21 21 22 21 20 20 20 19 19 19 19 19 18 18 18 18
22 22 21 23 24 24 24 23 23 23 22 21 21 21 21 21 21 20 20 21 20 20 20 20 20 19 19 19 19 19 19 18 18
24 24 23 23 24 24 23 22 23 22 22 22 20 20 20 20 20 20 20 20 20 20 20 20 19 19 19 19 18 19 19 18 18
23 23 22 23 23 22 23 23 22 21 20 20 20 21 20 21 20 20 20 20 20 20 20 19 19 19 19 19 18 18 19 19 19
22 22 22 22 22 22 22 22 21 20 19 18 19 20 20 20 20 21 20 21 19 19 19 19 19 19 18 18 19 19 18 18 17
20 20 20 21 22 22 22 21 21 20 19 17 18 18 17 18 21 19 19 19 19 19 19 18 18 18 18 18 18 17 17 15 13
19 19 19 20 21 21 20 20 20 17 16 16 15 16 15 14 18 18 19 19 18 18 17 17 17 18 17 16 15 15 14 12 11
17 18 19 18 21 20 19 20 19 19 17 18 17 16 16 14 17 18 17 17 17 17 17 17 17 17 16 15 14 13 12 12 12
16 17 19 15 18 19 19 19 18 18 19 18 19 17 15 15 16 17 16 16 16 16 16 16 15 15 13 13 13 11 11 12 12
16 17 19 19 17 19 19 19 18 17 17 17 17 16 15 15 15 15 15 15 15 15 15 14 14 13 11 11 11 10 9 9 10
15 15 18 19 19 19 19 18 17 17 16 16 16 15 15 15 15 15 15 15 14 14 13 13 12 12 11 11 11 10 9 9 10
15 15 18 19 19 19 19 18 18 17 16 15 15 15 15 15 15 15 15 14 13 13 12 12 12 12 11 11 11 10 9 9 10

GFSFLT1_850_temp_168.txt.gz
Temp
30 29 28 27 25 25 23 23 21 21 20 21 21 20 20 20 19 18 18 18 19 19 20 20 20 18 20 20 19 19 19 18 18
30 29 28 27 26 25 23 22 22 21 20 22 21 21 21 20 20 20 18 18 18 18 18 19 19 18 19 20 20 19 19 18 18
31 29 27 27 26 25 24 23 22 23 21 23 22 20 21 21 20 20 20 20 20 18 18 18 18 18 19 19 19 19 19 19 18
30 29 27 26 25 25 24 23 22 22 22 21 21 21 20 20 20 20 20 20 20 20 19 19 19 19 18 18 18 18 19 19 19
29 26 27 25 25 24 24 23 23 22 22 22 21 23 22 22 20 19 19 20 20 20 20 19 19 20 20 19 18 18 18 19 18
28 26 26 25 24 23 24 23 23 23 22 22 22 24 23 21 21 21 20 20 21 20 20 20 18 19 20 20 19 19 18 17 17
28 25 25 25 25 24 23 23 22 22 22 21 21 23 21 22 23 21 21 21 20 20 20 20 20 19 19 19 18 18 18 18 17
27 26 25 24 24 23 22 22 21 21 21 21 21 22 20 22 22 22 20 21 21 21 20 20 20 19 18 17 18 18 18 17 17
28 27 26 25 24 23 22 21 20 20 21 20 20 20 21 20 22 22 22 21 22 21 20 20 20 18 18 17 17 17 19 19 19
27 27 25 24 23 23 23 21 20 20 20 19 19 19 22 21 21 22 22 21 22 21 20 19 19 19 18 18 19 19 20 19 19
26 25 24 23 23 22 21 21 21 20 19 19 19 20 22 20 19 22 21 21 21 19 20 20 20 19 20 20 19 20 19 19 18
23 23 23 22 22 21 20 20 20 19 19 19 19 21 20 20 18 18 20 21 21 20 20 21 20 20 20 19 18 19 19 19 19
22 22 21 21 21 20 20 19 19 19 19 18 18 17 17 18 18 18 17 18 20 20 20 20 19 19 19 19 18 18 18 18 18
22 21 20 20 19 20 20 22 22 22 21 20 18 17 17 17 17 20 17 15 18 19 18 19 19 18 18 18 18 17 17 16 16
21 20 19 19 19 18 22 21 21 21 19 18 18 17 16 16 16 17 16 15 16 18 18 18 17 17 17 14 14 14 14 12 11
21 20 19 19 17 20 19 17 18 20 19 18 17 16 15 15 14 15 15 13 15 17 17 16 17 16 13 12 11 10 12 12 12
20 19 19 18 17 19 18 16 16 19 19 19 17 17 16 15 15 16 15 15 13 14 14 15 14 13 12 11 10 12 11 11 11
19 19 19 17 15 18 18 15 16 18 19 19 18 18 17 18 17 16 15 12 14 15 16 16 13 13 12 11 12 12 10 10 10
18 18 18 17 15 18 18 16 18 19 18 18 18 17 16 17 16 15 15 15 15 14 15 15 14 14 13 12 12 12 11 10 10
17 17 18 17 16 18 17 15 18 18 18 17 16 17 16 14 14 12 12 12 12 14 14 14 13 13 13 12 12 12 12 11 10

GFSFLT1_850_temp_171.txt.gz
Temp
33 32 32 30 28 27 26 25 24 22 20 18 18 19 19 19 19 18 19 19 20 20 21 21 21 20 19 18 18 18 18 19 19
33 32 32 31 29 27 26 25 24 23 21 19 19 19 19 20 20 19 19 19 19 19 20 21 21 20 19 19 18 18 19 19 19
33 32 31 31 29 28 27 25 24 23 22 20 20 19 19 19 18 20 19 19 19 19 19 20 20 19 19 19 19 19 19 18 19
33 32 31 30 29 28 27 25 25 23 23 21 20 20 20 19 19 18 19 19 19 19 19 19 19 19 19 19 19 19 19 19 19
32 31 30 29 28 28 27 26 25 24 23 23 21 21 20 20 19 19 19 18 19 18 19 19 19 19 18 18 19 19 19 18 19
32 30 29 29 28 27 27 26 25 25 24 23 23 22 21 20 20 20 20 19 19 19 18 18 18 18 19 18 18 18 19 19 18
31 30 29 28 28 27 26 26 25 25 24 24 23 22 21 20 20 20 20 20 19 19 19 18 18 18 18 18 18 18 18 18 18
31 30 29 28 28 26 25 25 24 24 24 23 23 22 21 22 21 20 20 20 19 19 19 19 19 18 18 18 18 19 19 19 19
31 30 29 28 27 26 25 24 23 23 23 23 23 22 21 21 21 21 20 20 20 19 19 18 19 18 18 18 19 20 20 20 18
29 28 29 28 27 26 25 24 23 22 22 22 22 21 21 21 20 20 19 19 19 19 18 19 20 19 19 19 18 21 20 20 19
27 28 27 27 26 26 25 24 23 22 22 21 21 20 20 20 20 19 19 19 18 18 18 19 19 19 20 19 20 20 20 20 19
25 25 26 25 25 24 23 23 23 22 21 20 20 20 19 19 19 19 19 19 18 18 18 19 19 20 20 20 19 20 20 19 19
24 25 24 24 24 23 22 22 22 21 21 20 19 19 19 19 19 19 18 19 20 19 17 17 18 19 19 19 19 19 19 19 19
24 24 23 23 23 22 22 21 21 20 20 20 20 20 18 19 18 18 18 18 19 17 18 16 17 18 19 19 19 18 19 18 17
23 23 23 22 22 22 19 20 20 18 19 20 20 19 18 17 18 17 17 17 17 17 17 17 18 18 18 16 16 14 13 14 13
23 22 22 22 22 20 18 18 17 17 20 20 19 18 16 16 16 16 16 16 17 17 18 15 15 16 16 15 14 13 12 14 12
22 22 22 22 20 18 18 18 17 17 19 19 18 18 16 16 15 14 14 15 16 16 15 15 15 15 15 14 13 12 12 12 11
21 21 21 21 19 18 18 17 17 16 18 16 15 16 16 15 16 16 15 14 14 16 15 14 14 14 13 14 13 13 13 11 10
19 20 20 19 19 18 17 17 16 15 14 14 14 15 15 14 15 17 16 16 15 15 14 14 15 15 15 14 13 13 12 11 10
18 19 19 20 18 17 16 17 16 15 15 15 14 15 14 13 13 12 14 14 14 13 14 14 14 14 14 13 13 13 12 11 10